SWIFT

Last updated on Tue Sep 16 2025 00:02:40 GMT+0000 (Coordinated Universal Time)

1 28485U 04047A 25258.22710201 .00050366 00000+0 11009-2 0 9991 2 28485 20.5545 105.0695 0004503 135.6242 224.4560 15.42437434143997
UTC large
Height (km)
Speed (km/s)
/
Latitude / Longitude
Inclination (degrees)
Orbital Period (minutes)
Azimuth
Elevation
Range (km)
Doppler Factor

Next 0 passes for location: London (51.5072 / 0.1276)

Sorry there are no passes over London.